When you browse on this site, cookies collect data to enhance your experience and personalize the content and advertising you see.
Visit our Privacy Policy to learn more. By continuing to use the site, you agree to this use of cookies and data.
  • în România
  • Lista ţărilor
  • Pe 7 zile
  • Temperatura apei
  • Hartă satelitară
  • Meteo pe hartă
  • Widget-uri
  • user-avatar
    Intrare

    Meteo pe oră la Saint-Michel-sur-Orge

    Astăzi, 17 Iunie, Luni

    Timp Temperatura Precipitaţii Vânt Presiune Umiditate
    00:00 +14°C° 0 mm 0 m/s 761 mmHg 83%
    01:00 +14°C° 0 mm 0 m/s 761 mmHg 84%
    02:00 +15°C° 0 mm 1 m/s 760 mmHg 85%
    03:00 +15°C° 0 mm 1 m/s 760 mmHg 86%
    04:00 +15°C° 0 mm 1 m/s 760 mmHg 84%
    05:00 +15°C° 0 mm 0 m/s 760 mmHg 83%
    06:00 +16°C° 0 mm 0 m/s 760 mmHg 81%
    07:00 +18°C° 0 mm 0 m/s 760 mmHg 75%
    08:00 +19°C° 0 mm 0 m/s 760 mmHg 69%
    09:00 +23°C° 0 mm 1 m/s 760 mmHg 63%
    10:00 +24°C° 0 mm 1 m/s 760 mmHg 58%
    11:00 +25°C° 0 mm 1 m/s 760 mmHg 54%
    12:00 +27°C° 0 mm 1 m/s 759 mmHg 50%
    13:00 +27°C° 0 mm 1 m/s 759 mmHg 49%
    14:00 +27°C° 0 mm 1 m/s 759 mmHg 49%
    15:00 +27°C° 0 mm 2 m/s 758 mmHg 48%
    16:00 +26°C° 0 mm 1 m/s 758 mmHg 53%
    17:00 +26°C° 0 mm 1 m/s 758 mmHg 58%
    18:00 +25°C° 0 mm 1 m/s 758 mmHg 62%
    19:00 +24°C° 0 mm 1 m/s 758 mmHg 67%
    20:00 +22°C° 0 mm 1 m/s 758 mmHg 71%
    21:00 +21°C° 0 mm 1 m/s 758 mmHg 76%
    22:00 +20°C° 0 mm 1 m/s 758 mmHg 78%
    23:00 +19°C° 0 mm 1 m/s 758 mmHg 79%

    Mâine, 18 Iunie, Marţi

    Timp Temperatura Precipitaţii Vânt Presiune Umiditate
    00:00 +19°C° 0 mm 1 m/s 758 mmHg 81%
    01:00 +19°C° 0 mm 1 m/s 757 mmHg 82%
    02:00 +18°C° 0 mm 1 m/s 757 mmHg 83%
    03:00 +18°C° 0 mm 1 m/s 757 mmHg 84%
    04:00 +18°C° 0 mm 1 m/s 756 mmHg 83%
    05:00 +19°C° 0 mm 1 m/s 756 mmHg 82%
    06:00 +19°C° 0 mm 2 m/s 756 mmHg 81%
    07:00 +20°C° 0 mm 2 m/s 756 mmHg 77%
    08:00 +21°C° 0 mm 2 m/s 756 mmHg 73%
    09:00 +24°C° 0 mm 3 m/s 756 mmHg 69%
    10:00 +25°C° 0 mm 3 m/s 755 mmHg 65%
    11:00 +26°C° 0 mm 3 m/s 755 mmHg 62%
    12:00 +28°C° 0 mm 4 m/s 755 mmHg 59%
    13:00 +28°C° 0.1 mm 3 m/s 754 mmHg 58%
    14:00 +28°C° 0.1 mm 3 m/s 754 mmHg 58%
    15:00 +28°C° 0.1 mm 3 m/s 753 mmHg 57%
    16:00 +28°C° 0.1 mm 3 m/s 753 mmHg 61%
    17:00 +28°C° 0.1 mm 3 m/s 753 mmHg 65%
    18:00 +27°C° 0.1 mm 3 m/s 752 mmHg 69%
    19:00 +26°C° 0 mm 3 m/s 752 mmHg 73%
    20:00 +24°C° 0 mm 3 m/s 752 mmHg 77%
    21:00 +22°C° 0 mm 3 m/s 752 mmHg 81%
    22:00 +22°C° 0 mm 3 m/s 752 mmHg 82%
    23:00 +21°C° 0 mm 3 m/s 751 mmHg 82%

    Poimâine, 19 Iunie, Miercuri

    Timp Temperatura Precipitaţii Vânt Presiune Umiditate
    00:00 +21°C° 0 mm 3 m/s 751 mmHg 82%
    01:00 +20°C° 0 mm 3 m/s 751 mmHg 83%
    02:00 +19°C° 0 mm 3 m/s 751 mmHg 84%
    03:00 +18°C° 0 mm 3 m/s 750 mmHg 86%
    04:00 +19°C° 0.2 mm 4 m/s 751 mmHg 85%
    05:00 +19°C° 0.2 mm 4 m/s 751 mmHg 84%
    06:00 +19°C° 0.2 mm 4 m/s 752 mmHg 84%
    07:00 +21°C° 0 mm 5 m/s 752 mmHg 77%
    08:00 +22°C° 0 mm 5 m/s 752 mmHg 71%
    09:00 +23°C° 0 mm 6 m/s 752 mmHg 65%
    10:00 +23°C° 0 mm 6 m/s 753 mmHg 62%
    11:00 +24°C° 0 mm 6 m/s 753 mmHg 60%
    12:00 +24°C° 0 mm 7 m/s 753 mmHg 58%
    13:00 +24°C° 0 mm 7 m/s 753 mmHg 59%
    14:00 +24°C° 0 mm 7 m/s 753 mmHg 60%
    15:00 +24°C° 0 mm 6 m/s 753 mmHg 61%
    16:00 +23°C° 0.1 mm 5 m/s 753 mmHg 65%
    17:00 +22°C° 0.1 mm 5 m/s 753 mmHg 69%
    18:00 +21°C° 0.1 mm 4 m/s 754 mmHg 73%
    19:00 +20°C° 0.1 mm 3 m/s 754 mmHg 75%
    20:00 +19°C° 0.1 mm 2 m/s 755 mmHg 78%
    21:00 +18°C° 0.1 mm 2 m/s 755 mmHg 81%
    22:00 +18°C° 0 mm 2 m/s 755 mmHg 82%
    23:00 +18°C° 0 mm 1 m/s 755 mmHg 83%

    20 Iunie, Joi

    Timp Temperatura Precipitaţii Vânt Presiune Umiditate
    00:00 +18°C° 0 mm 1 m/s 755 mmHg 84%
    01:00 +18°C° 0 mm 1 m/s 755 mmHg 84%
    02:00 +18°C° 0 mm 1 m/s 755 mmHg 84%
    03:00 +18°C° 0 mm 1 m/s 755 mmHg 84%
    04:00 +18°C° 0 mm 1 m/s 755 mmHg 84%
    05:00 +18°C° 0 mm 1 m/s 755 mmHg 83%
    06:00 +18°C° 0 mm 1 m/s 755 mmHg 83%
    07:00 +18°C° 0.1 mm 1 m/s 756 mmHg 80%
    08:00 +18°C° 0.1 mm 2 m/s 756 mmHg 78%
    09:00 +19°C° 0.1 mm 2 m/s 756 mmHg 75%
    10:00 +19°C° 0.2 mm 2 m/s 756 mmHg 72%
    11:00 +20°C° 0.2 mm 3 m/s 756 mmHg 68%
    12:00 +20°C° 0.2 mm 3 m/s 756 mmHg 65%
    13:00 +21°C° 0 mm 3 m/s 756 mmHg 62%
    14:00 +22°C° 0 mm 3 m/s 756 mmHg 59%
    15:00 +22°C° 0 mm 3 m/s 756 mmHg 56%
    16:00 +22°C° 0 mm 3 m/s 756 mmHg 58%
    17:00 +21°C° 0 mm 3 m/s 756 mmHg 61%
    18:00 +20°C° 0 mm 3 m/s 756 mmHg 64%
    19:00 +19°C° 0 mm 2 m/s 757 mmHg 67%
    20:00 +18°C° 0 mm 2 m/s 757 mmHg 70%
    21:00 +16°C° 0 mm 2 m/s 757 mmHg 73%
    22:00 +16°C° 0 mm 2 m/s 758 mmHg 75%
    23:00 +15°C° 0 mm 1 m/s 758 mmHg 77%

    21 Iunie, Vineri

    Timp Temperatura Precipitaţii Vânt Presiune Umiditate
    00:00 +15°C° 0 mm 1 m/s 758 mmHg 80%
    01:00 +14°C° 0 mm 1 m/s 758 mmHg 80%
    02:00 +14°C° 0 mm 1 m/s 758 mmHg 81%
    03:00 +14°C° 0 mm 1 m/s 758 mmHg 81%
    04:00 +14°C° 0 mm 1 m/s 758 mmHg 79%
    05:00 +15°C° 0 mm 1 m/s 758 mmHg 76%
    06:00 +14°C° 0 mm 0 m/s 758 mmHg 74%
    07:00 +18°C° 0 mm 1 m/s 759 mmHg 67%
    08:00 +20°C° 0 mm 1 m/s 759 mmHg 61%
    09:00 +21°C° 0 mm 1 m/s 759 mmHg 54%
    10:00 +22°C° 0 mm 1 m/s 759 mmHg 52%
    11:00 +23°C° 0 mm 1 m/s 759 mmHg 49%
    12:00 +24°C° 0 mm 1 m/s 758 mmHg 47%
    13:00 +24°C° 0 mm 1 m/s 758 mmHg 47%
    14:00 +24°C° 0 mm 1 m/s 758 mmHg 48%
    15:00 +24°C° 0 mm 1 m/s 758 mmHg 49%
    16:00 +23°C° 0.1 mm 1 m/s 758 mmHg 54%
    17:00 +21°C° 0.1 mm 2 m/s 758 mmHg 60%
    18:00 +21°C° 0.1 mm 2 m/s 758 mmHg 65%
    19:00 +20°C° 0.1 mm 2 m/s 758 mmHg 69%
    20:00 +18°C° 0.1 mm 2 m/s 759 mmHg 73%
    21:00 +17°C° 0.1 mm 3 m/s 759 mmHg 76%
    22:00 +17°C° 0 mm 3 m/s 759 mmHg 78%
    23:00 +16°C° 0 mm 3 m/s 759 mmHg 80%

    22 Iunie, Sâmbătă

    Timp Temperatura Precipitaţii Vânt Presiune Umiditate
    00:00 +16°C° 0 mm 3 m/s 758 mmHg 82%
    01:00 +14°C° 0 mm 3 m/s 758 mmHg 83%
    02:00 +15°C° 0 mm 2 m/s 758 mmHg 83%
    03:00 +14°C° 0 mm 2 m/s 758 mmHg 84%
    04:00 +14°C° 0 mm 2 m/s 758 mmHg 82%
    05:00 +15°C° 0 mm 2 m/s 758 mmHg 79%
    06:00 +15°C° 0 mm 2 m/s 758 mmHg 77%
    07:00 +16°C° 0 mm 3 m/s 758 mmHg 74%
    08:00 +18°C° 0 mm 3 m/s 757 mmHg 71%
    09:00 +19°C° 0 mm 3 m/s 757 mmHg 68%
    10:00 +20°C° 0 mm 3 m/s 757 mmHg 63%
    11:00 +22°C° 0 mm 3 m/s 757 mmHg 58%
    12:00 +24°C° 0 mm 3 m/s 757 mmHg 54%
    13:00 +24°C° 0.2 mm 3 m/s 756 mmHg 55%
    14:00 +24°C° 0.2 mm 3 m/s 756 mmHg 56%
    15:00 +25°C° 0.2 mm 3 m/s 755 mmHg 57%
    16:00 +24°C° 0.5 mm 3 m/s 755 mmHg 61%
    17:00 +23°C° 0.5 mm 2 m/s 755 mmHg 65%
    18:00 +23°C° 0.5 mm 2 m/s 755 mmHg 69%
    19:00 +21°C° 0.2 mm 2 m/s 755 mmHg 72%
    20:00 +20°C° 0.2 mm 2 m/s 755 mmHg 74%
    21:00 +18°C° 0.2 mm 2 m/s 755 mmHg 76%
    22:00 +19°C° 0 mm 1 m/s 755 mmHg 78%
    23:00 +19°C° 0 mm 1 m/s 755 mmHg 80%
    Arată mai mult